Weather History for Defiance, OH

Change the Weather History Date:

Thursday, June 5, 2014

  Actual Average Record
Temperature  
Mean Temperature 63 °F -  
Max Temperature 75 °F 76 °F 91 °F (1944)
Min Temperature 51 °F 52 °F 37 °F (1945)
Degree Days  
Heating Degree Days 2    
Growing Degree Days 13 (Base 50)    
Moisture  
Dew Point 50 °F    
Average Humidity 70    
Maximum Humidity 94    
Minimum Humidity 32    
Precipitation  
Precipitation 0.00 in - - ()
Sea Level Pressure  
Sea Level Pressure 29.92 in    
Wind  
Wind Speed 4 mph (North)    
Max Wind Speed 10 mph    
Max Gust Speed -    
Visibility 7 miles    
Events Fog    
Averages and records for this station are not official NWS values.
T = Trace of Precipitation, MM = Missing Value Source: NWS Daily Summary

Daily Weather History Graph

Daily Weather History Graph

Search for Another Location

Airport:

Trip Planner

Search our weather history database for the weather conditions in past years. The results will help you decide how hot, cold, wet, or windy it might be!

Date:

Astronomy

Jun. 05, 2014 Rise Set
Actual Time 6:05 AM EDT 9:07 PM EDT
Civil Twilight 5:31 AM EDT 9:40 PM EDT
Nautical Twilight 4:49 AM EDT 10:23 PM EDT
Astronomical Twilight 3:59 AM EDT 11:13 PM EDT
Moon 1:24 PM EDT (6/5) 1:31 AM EDT (6/5)
Length of Visible Light 16h 09m
Length of Day
15h 02m
Waxing Crescent, 48% of the Moon is Illuminated
Jun 5
Waxing Crescent
Jun 5
First Quarter
Jun 13
Full
Jun 19
Last Quarter
Jun 27
New

Hourly Weather History & Observations

Time (EDT) Temp. Dew Point Humidity Pressure Visibility Wind Dir Wind Speed Gust Speed Precip Events Conditions
12:53 AM 55.9 °F 54.0 °F 93% 29.86 in 4.0 mi NNW 5.8 mph - N/A   Clear
1:50 AM 55.4 °F 53.6 °F 94% 29.88 in 2.0 mi Calm Calm - N/A   Clear
1:53 AM 55.0 °F 53.1 °F 93% 29.88 in 1.8 mi Calm Calm - N/A   Clear
2:10 AM 55.0 °F 52.0 °F 89% 29.88 in 1.2 mi NNW 4.6 mph - N/A   Partly Cloudy
2:43 AM 53.1 °F 51.1 °F 93% 29.88 in 0.2 mi Calm Calm - N/A Fog Fog
2:53 AM 54.0 °F 52.0 °F 93% 29.88 in 0.2 mi Calm Calm - N/A Fog Fog
3:53 AM 52.0 °F 50.0 °F 93% 29.90 in 0.2 mi Calm Calm - N/A Fog Fog
4:53 AM 51.1 °F 48.9 °F 92% 29.92 in 0.2 mi NW 3.5 mph - N/A Fog Fog
5:16 AM 54.0 °F 52.0 °F 93% 29.91 in 0.5 mi NNW 6.9 mph - N/A Fog Fog
5:20 AM 54.0 °F 52.0 °F 93% 29.91 in 1.5 mi North 6.9 mph - N/A   Mostly Cloudy
5:22 AM 54.0 °F 52.0 °F 93% 29.91 in 3.0 mi North 6.9 mph - N/A   Mostly Cloudy
5:32 AM 54.0 °F 52.0 °F 93% 29.91 in 5.0 mi North 8.1 mph - N/A   Scattered Clouds
5:53 AM 55.0 °F 53.1 °F 93% 29.91 in 6.0 mi NNE 9.2 mph - N/A   Partly Cloudy
6:53 AM 54.0 °F 51.1 °F 90% 29.92 in 8.0 mi NNE 5.8 mph - N/A   Clear
7:53 AM 57.9 °F 52.0 °F 81% 29.95 in 10.0 mi NNE 6.9 mph - N/A   Clear
8:53 AM 61.0 °F 48.9 °F 64% 29.95 in 10.0 mi NNE 8.1 mph - N/A   Clear
9:53 AM 64.0 °F 46.9 °F 54% 29.95 in 10.0 mi NE 5.8 mph - N/A   Clear
10:53 AM 66.9 °F 46.0 °F 47% 29.95 in 10.0 mi East 10.4 mph - N/A   Clear
11:53 AM 68.0 °F 45.0 °F 43% 29.98 in 10.0 mi Variable 5.8 mph - N/A   Clear
12:53 PM 71.1 °F 46.0 °F 41% 29.97 in 10.0 mi NNE 4.6 mph - N/A   Clear
1:53 PM 72.0 °F 46.9 °F 41% 29.95 in 10.0 mi Variable 3.5 mph - N/A   Clear
2:53 PM 73.9 °F 45.0 °F 35% 29.94 in 10.0 mi North 8.1 mph - N/A   Clear
3:53 PM 73.9 °F 46.0 °F 37% 29.93 in 10.0 mi Variable 3.5 mph - N/A   Clear
4:53 PM 75.0 °F 46.0 °F 36% 29.91 in 10.0 mi Variable 3.5 mph - N/A   Clear
5:53 PM 75.9 °F 46.0 °F 35% 29.91 in 10.0 mi West 4.6 mph - N/A   Clear
6:53 PM 75.9 °F 44.1 °F 32% 29.92 in 10.0 mi North 6.9 mph - N/A   Clear
7:53 PM 73.9 °F 46.0 °F 37% 29.92 in 10.0 mi Calm Calm - N/A   Clear
8:53 PM 68.0 °F 48.9 °F 50% 29.94 in 10.0 mi Calm Calm - N/A   Clear
9:53 PM 61.0 °F 52.0 °F 72% 29.95 in 10.0 mi Calm Calm - N/A   Clear
10:53 PM 57.9 °F 51.1 °F 78% 29.96 in 10.0 mi Calm Calm - N/A   Clear
11:53 PM 57.0 °F 51.1 °F 81% 29.97 in 10.0 mi NW 4.6 mph - N/A   Clear